Location: Waco, TX
(31.5480°N, 97.1670°W)
Time: 18:46:25
(UTC-06:00)

ISS - Pass Details

Date: 20 January 2019
Orbit: 404 x 410 km, 51.6° (Epoch: 24 January)

Event Time Altitude Azimuth Distance (km) Brightness Sun altitude
Rises 20:15:50 0° 259° (WSW) 2,321 1.2 -30.3°
Reaches altitude 10° 20:18:22 10° 279° (W) 1,465 -0.2 -30.8°
Enters shadow 20:18:40 11° 283° (WNW) 1,388 -0.4 -30.9°
Maximum altitude 20:20:42 18° 324° (NW) 1,089 - -31.3°
Drops below altitude 10° 20:23:02 10° 10° (N) 1,472 - -31.8°
Sets 20:25:36 0° 30° (NNE) 2,337 - -32.4°
